Location: Unspecified
(0.0000°N, 0.0000°E)
Time: 14:49:33
(UTC+00:00)

deb Midas V - Pass Details

Date: 13 April 2026
Orbit: 2771 x 3389 km, 86.6° (Epoch: 16 May)

Event Time Altitude Azimuth Distance (km) Brightness Sun altitude
Rises 20:33:05 0° 334° (NNW) 7,368 ? -37.6°
Reaches altitude 10° 20:38:48 10° 322° (NW) 6,300 ? -39.0°
Maximum altitude 20:51:08 24° 275° (W) 5,038 ? -42.0°
Drops below altitude 10° 21:03:06 10° 226° (SW) 5,972 ? -44.9°
Sets 21:08:34 0° 212° (SSW) 6,905 ? -46.2°
